SCP
0 0 0 0 0 -0 0 0 0 0 0 0 0 -0 0 0 0 0 0 0 0 0 0 0 0 0 0 0 0 0 0 0 0 0 0 0 0 0 0 0 0 0 0 0
0 0 0 0 0 0 0 0 0 0 0 0 -0 0 0 0 0 0 0 0 0 0 0 0 0 0 0 0 0 0 0 0 0 0 0 0 0 0 0 0 0 0 0 0
0 0 0 0 0 0 0 0 0 0 0 0 0 0 0 0 0 0 0 0 0 0 0 0 0 0 0 0 0 0 0 0 0 0 0 0 0 0 0 0 0 0 0 0
0 0 0 0 0 0 0 0 0 0 0 0 0 0 0 0 0 0 0 0 0 0 0 0 0 0 0 0 0 0 0 0 0 0 0 0 0 0 0 0 0 0 0 -0
0 0 0 0 0 0 0 0 0 0 0 0 0 0 0 0 0 0 0 0 0 0 0 0 0 0 0 0 0 0 0 0 0 0 0 0 0 0 0 -0 0 -0 -0 0
0 0 0 0 0 0 0 0 0 0 0 0 0 0 0 0 0 0 0 0 0 0 0 0 0 0 0 0 0 0 0 0 0 0 0 0 0 0 0 0 0 0 0 0
0 0 0 0 0 0 0 0 0 0 0 0 0 0 0 0 0 0 0 0 0 0 0 0 0 0 0 0 0 0 0 0 0 0 0 0 0 0 0 0 0 0 0 0
0 0 0 0 0 0 0 0 0 0 0 0 0 0 0 0 0 0 0 0 0 0 0 0 0 0 0 0 0 0 0 0 0 0 0 0 0 0 0 0 0 0 0 0
0 0 0 0 0 0 0 0 0 0 0 0 0 0 0 0 0 0 0 0 0 0 0 0 0 0 0 0 0 0 0 0 0 0 0 0 0 0 0 -0 -0 0 0 0
0 0 0 0 0 0 0 0 0 0 0 0 0 0 0 0 0 0 0 0 0 0 0 0 0 0 0 0 0 0 -0 0 0 -0 0 0 0 0 0 -0 0 0 0 0
0 0 0 0 0 0 0 0 0 0 0 0 0 0 0 0 0 0 0 0 0 0 0 0 0 0 0 0 0 0 0 0 0 -0 0 0 0 0 -0 0 -0 0 0 0
0 0 0 0 0 0 0 0 0 0 0 0 0 0 0 0 0 0 0 0 0 0 0 0 0 0 0 0 0 0 0 0 0 0 0 0 0 -0 0 -0 -0 0 0 -0
0 0 0 0 0 0 0 0 0 0 0 0 0 0 0 0 0 0 0 0 0 0 0 0 0 0 0 0 0 0 0 0 0 0 0 0 0 -0 0 0 -0 0 0 0
0 0 0 0 0 0 0 0 0 0 0 0 0 0 0 0 0 0 0 0 0 0 0 0 0 0 0 0 0 0 0 0 0 0 0 0 0 -0 -0 -0 0 0 0 0
0 0 0 0 0 0 0 0 0 0 0 0 0 0 -0 0 0 0 0 0 0 0 0 0 0 0 0 0 0 0 0 0 0 0 0 0 0 -0 -0 -0 0 0 0 0
0 0 0 0 0 0 0 0 0 0 0 0 0 0 0 0 0 0 0 0 0 0 0 0 0 0 0 0 0 0 0 0 0 0 0 0 -0 -0 -0 -0 0 0 0 0
0 0 0 0 0 0 0 0 0 0 0 0 0 0 0 0 0 0 0 0 0 0 0 0 0 0 0 0 0 0 0 0 0 0 0 0 0 -0 -0 -0 -0 0 0 0
0 0 0 0 0 0 0 0 0 0 0 0 0 0 0 0 0 0 0 0 0 0 0 0 0 0 0 0 0 0 0 0 0 0 0 0 0 -0 -0 -0 -0 -0 -0 -0
0 0 0 0 0 0 0 0 0 0 0 0 0 0 0 0 0 0 0 0 0 0 0 -0 0 0 0 0 0 0 0 0 0 0 0 0 0 -0 -0 -0 -0 -0 -0 -0
0 0 0 0 0 0 0 0 0 0 0 0 0 0 0 0 0 0 0 0 0 0 0 0 0 0 0 0 0 0 0 0 0 0 0 0 0 -0 -0 -0 -0 -0 -0 -0
0 0 0 0 0 0 0 0 0 0 0 0 0 0 0 0 0 0 0 0 0 0 -0 0 0 0 0 0 0 0 0 0 0 0 0 0 0 -0 -0 -0 -0 -0 -0 -0
0 0 0 0 0 0 0 0 0 0 0 0 0 0 0 0 0 0 0 0 0 0 0 0 0 0 0 0 0 0 0 0 0 0 0 0 0 -0 -0 -0 -0 -0 -0 -0
0 0 0 0 0 0 0 0 0 0 0 0 0 0 0 0 0 0 0 0 0 0 0 0 0 0 0 0 0 0 0 0 0 0 0 0 0 -0 -0 -0 -0 -0 -0 -0
0 0 0 0 0 0 0 0 0 0 0 0 0 -0 -0 0 0 0 0 0 0 0 -0 0 0 0 0 0 0 0 0 0 0 0 0 0 0 0 -0 -0 -0 0 -0 -0
0 0 0 0 0 0 0 0 0 0 -0 -0 -0 0 0 0 0 0 0 0 0 0 0 0 0 0 0 0 0 0 0 0 0 0 0 0 0 0 -0 -0 -0 -0 -0 -0
0 0 0 0 0 0 0 -0 0 0 0 0 0 -0 0 0 0 0 0 0 0 0 0 0 0 0 0 0 0 0 0 0 0 0 0 0 0 0 -0 -0 -0 -0 -0 -0
0 0 0 0 0 0 -0 0 0 0 0 0 0 0 0 0 0 0 0 0 0 0 -0 0 -0 0 0 -0 -0 -0 -0 -0 0 0 0 0 0 0 -0 -0 0 0 -0 -0
Wind_Speed_500mb
39 43 43 43 47 53 35 12 9 7 4 20 24 19 8 5 13 9 7 11 23 22 26 25 33 29 13 18 6 8 8 7 21 32 31 29 25 21 16 14 14 20 21 24
37 43 36 36 38 46 56 19 27 4 5 11 17 9 4 9 11 7 6 6 21 27 22 17 20 17 7 7 10 0 3 8 16 21 29 32 17 15 19 19 19 25 24 23
37 36 29 30 30 33 38 16 8 12 7 5 12 20 19 12 9 6 12 17 18 20 28 20 14 23 8 17 5 16 3 16 22 21 14 12 29 29 28 23 16 25 29 37
29 29 26 26 26 26 32 12 8 6 8 12 13 15 21 23 11 11 8 7 16 13 11 17 14 16 11 27 12 11 13 23 27 33 35 33 38 38 37 33 35 33 35 39
28 27 24 25 23 22 16 16 14 29 32 19 13 11 3 14 12 7 9 10 18 16 18 18 28 19 19 13 4 15 10 19 21 30 34 38 40 37 33 35 35 39 35 32
32 22 25 26 19 18 10 19 17 19 24 16 12 7 8 7 11 14 5 11 14 18 18 16 28 29 30 27 16 6 7 5 7 14 24 29 22 25 21 11 16 21 25 34
32 25 24 28 21 16 17 16 23 19 17 17 10 13 17 16 16 17 27 20 17 15 24 33 39 44 41 35 31 34 14 17 10 10 23 21 12 17 10 17 18 28 30 33
33 29 24 28 24 20 18 11 14 7 14 27 19 15 15 19 25 15 21 19 7 13 16 11 14 13 15 25 34 28 28 17 5 6 15 26 24 12 13 13 17 28 29 35
32 30 25 32 30 24 19 11 7 10 12 4 17 19 13 11 13 17 17 8 9 9 4 4 7 5 3 4 8 30 30 31 15 14 9 7 13 1 15 20 14 31 38 36
35 33 34 39 34 25 18 15 13 6 18 26 10 8 7 7 8 9 24 9 3 4 3 4 8 11 12 7 12 10 16 8 20 20 13 13 16 22 24 11 16 43 47 48
31 29 33 26 24 24 21 21 20 9 10 35 29 19 23 19 13 7 12 13 6 4 5 6 8 6 5 7 11 12 13 11 12 16 10 9 27 15 10 17 32 39 45 48
24 26 21 20 22 25 22 26 21 19 18 22 32 37 37 31 23 8 8 3 4 5 2 4 9 7 4 8 2 10 6 10 4 4 3 19 23 26 17 22 31 38 44 45
26 24 19 18 20 20 20 22 24 15 16 30 17 17 15 24 33 23 10 5 8 6 9 3 7 9 5 4 3 4 3 15 5 6 6 14 20 24 28 29 33 39 43 49
26 26 20 19 25 25 25 31 29 17 7 6 9 2 4 5 20 33 32 13 13 5 2 7 8 8 12 8 4 6 10 15 8 8 14 16 19 35 32 33 36 39 43 43
26 24 25 23 21 26 25 34 34 20 8 5 21 36 26 30 30 32 33 27 17 8 6 10 8 10 11 18 13 14 2 5 4 5 12 10 20 26 28 34 36 38 41 45
25 23 23 22 20 29 37 21 35 28 20 3 6 9 6 19 22 12 28 30 22 8 7 12 13 21 18 5 4 2 14 8 18 8 11 12 17 21 27 29 32 31 36 38
24 23 22 21 26 28 32 13 8 22 21 5 7 3 14 14 8 11 21 14 13 13 9 12 23 17 13 11 15 13 13 19 10 6 8 15 18 23 25 27 28 32 31 36
18 17 19 18 24 39 28 20 18 14 9 7 5 7 13 12 6 8 14 11 16 14 10 11 16 14 9 8 6 22 18 15 7 8 8 12 17 20 24 27 30 32 37 42
18 22 20 31 29 20 21 20 19 26 9 5 6 5 4 8 7 9 14 16 7 11 7 13 9 8 11 3 22 13 14 6 6 7 11 16 19 22 26 29 31 33 38 40
21 20 8 8 15 15 29 14 12 6 5 9 9 22 5 13 7 7 7 12 5 5 11 11 8 9 11 23 20 16 9 9 10 11 15 20 22 24 26 30 30 32 34 38
43 11 8 15 34 15 9 9 10 12 8 14 14 23 12 4 5 4 9 3 4 6 8 11 8 9 16 15 16 14 13 13 13 12 13 17 19 22 25 28 29 31 34 36
17 15 25 27 8 5 6 8 9 11 7 18 10 4 4 7 6 7 5 4 7 9 20 8 5 11 26 21 17 16 15 13 13 14 17 19 21 23 23 26 28 31 34 37
14 6 10 8 10 8 10 13 9 8 11 13 12 5 6 6 10 6 5 9 10 9 5 2 6 27 31 22 20 17 15 14 14 16 18 19 20 24 25 27 27 29 34 39
6 9 8 8 9 9 10 5 6 2 15 16 17 9 7 9 7 6 8 8 5 6 9 5 15 28 25 21 20 19 15 14 15 15 16 18 20 23 26 27 27 29 35 38
3 5 7 11 14 2 10 6 9 7 22 21 11 5 13 7 7 9 7 7 9 3 6 4 32 29 24 23 19 17 16 16 15 15 16 18 19 21 23 26 28 31 32 36
5 8 9 12 10 7 6 14 11 14 9 9 5 5 6 10 6 9 13 5 1 6 8 32 31 27 23 21 19 17 17 16 16 16 16 17 19 21 21 23 27 30 34 36
6 10 19 21 11 7 8 7 14 16 9 3 6 7 12 7 6 4 1 2 12 31 35 28 33 29 23 23 20 18 17 16 17 18 17 17 18 19 22 26 27 27 33 34
Wind_Direction_500mb
320 325 330 332 339 339 350 288 265 150 175 238 242 264 33 36 310 309 312 300 297 299 314 296 292 284 224 275 284 218 108 289 277 272 258 269 289 267 249 214 249 258 259 268
321 319 323 329 338 343 346 295 286 174 181 268 315 221 331 311 253 330 313 281 297 313 288 301 287 304 96 253 246 306 85 246 279 263 246 239 237 279 259 254 261 266 276 284
320 320 318 321 333 336 338 291 288 187 221 260 325 346 310 288 118 315 351 322 313 308 293 266 271 284 348 207 159 99 314 263 251 276 292 215 281 281 272 263 259 273 269 284
315 322 318 315 322 326 331 254 6 7 310 53 343 301 306 290 321 24 346 296 34 346 289 323 312 14 4 304 208 227 234 263 275 279 282 281 275 271 271 271 271 271 278 281
300 323 316 315 319 317 308 307 350 336 289 279 302 272 353 336 334 314 307 299 12 327 286 319 307 331 312 288 258 255 228 261 278 277 274 262 262 267 268 263 268 266 282 299
272 301 312 311 314 317 318 343 315 282 296 266 229 25 20 299 282 300 316 344 312 288 320 296 303 299 291 271 271 272 307 276 302 268 273 284 275 275 300 5 327 348 316 334
268 282 297 300 305 288 291 325 329 308 279 280 289 328 300 304 319 286 292 294 269 293 315 302 280 261 255 255 249 244 240 270 263 283 297 277 311 23 26 6 350 3 360 353
271 277 274 295 293 285 264 292 320 305 289 317 308 334 334 318 304 276 289 302 312 321 312 300 282 233 229 234 234 230 218 228 260 257 266 286 271 48 26 9 357 27 354 345
283 273 265 288 283 275 270 256 260 280 291 6 347 316 310 312 315 297 268 330 294 297 303 312 271 267 244 204 180 203 203 216 209 269 261 283 80 141 357 308 267 8 355 340
269 264 277 278 269 261 247 226 242 262 278 285 351 353 322 314 328 281 292 326 297 283 206 255 260 255 131 221 166 171 192 196 228 242 242 271 23 350 334 277 342 345 345 337
252 273 283 262 242 240 244 239 236 235 238 283 293 274 257 257 246 255 358 288 358 153 211 252 263 302 348 280 136 154 199 196 199 233 245 247 15 24 30 5 341 334 335 333
260 278 271 234 241 232 233 231 239 252 249 268 278 272 256 246 253 196 225 5 241 240 273 271 303 311 333 307 209 138 229 190 228 263 131 82 63 80 39 357 341 339 327 328
263 259 249 244 242 233 248 264 245 252 278 302 260 295 281 232 223 209 222 238 239 265 153 318 282 279 274 276 264 265 284 275 212 290 117 43 45 32 6 354 341 331 333 333
252 244 250 263 250 244 242 251 235 225 237 284 299 285 121 169 190 205 225 242 230 265 258 245 266 268 287 290 236 249 257 218 257 284 46 348 28 358 349 341 335 336 334 340
242 242 249 261 249 232 245 252 241 227 219 277 292 295 281 241 192 205 220 209 212 203 269 234 251 269 272 266 279 268 50 309 338 63 56 358 337 329 332 338 341 338 339 344
242 245 247 256 243 215 228 213 233 229 223 246 293 294 199 135 180 203 202 193 200 207 246 269 261 270 276 295 281 151 169 106 43 44 352 332 312 338 339 343 341 349 348 350
240 239 241 248 230 232 193 183 183 163 182 220 269 229 144 153 156 185 174 190 207 197 240 251 257 265 280 275 257 9 95 91 66 333 335 336 351 339 344 347 349 349 351 352
236 236 240 240 219 202 187 173 154 154 158 232 266 272 175 174 153 167 178 171 195 217 241 251 257 262 224 253 150 174 102 89 66 354 348 1 348 348 354 352 353 355 358 354
219 220 242 197 186 182 194 192 169 172 177 234 237 242 185 164 171 184 178 183 196 225 233 236 235 243 213 217 133 125 88 78 16 8 29 11 4 1 2 3 3 5 0 358
197 193 175 161 166 158 143 133 172 203 225 231 251 230 240 185 160 194 210 186 220 231 228 215 221 249 146 129 137 116 111 78 59 46 26 8 7 11 9 13 11 9 1 358
176 153 143 132 142 135 153 154 193 177 222 211 228 230 213 301 187 194 221 209 216 249 193 204 214 162 150 150 126 117 106 99 78 58 31 21 17 15 14 17 18 14 7 6
179 154 131 143 181 186 203 195 192 212 243 176 196 143 172 140 164 211 248 247 214 251 168 221 169 135 144 132 137 122 116 100 79 58 46 40 36 30 29 27 25 21 17 16
161 149 130 175 175 192 215 192 192 199 205 163 152 144 152 153 194 219 223 229 234 282 226 203 100 126 137 145 136 127 113 98 86 71 60 53 46 41 39 36 32 27 23 19
179 148 169 230 179 232 219 276 100 223 117 130 147 139 175 184 183 234 239 234 210 238 213 102 128 134 147 148 137 130 112 99 90 77 62 55 50 46 44 38 30 24 21 16
190 207 230 217 234 191 94 104 181 150 149 141 135 184 184 186 235 209 239 232 230 2 80 84 128 141 147 140 127 124 119 110 92 80 69 63 57 51 43 33 26 22 19 16
226 231 259 235 247 202 297 227 178 158 136 147 185 201 210 225 214 223 209 230 302 112 116 134 138 140 133 121 119 116 114 107 97 86 79 70 59 48 38 29 24 19 19 16
235 243 243 258 290 254 214 178 129 156 146 227 232 225 217 181 240 231 219 97 121 131 134 136 134 135 142 130 128 122 115 107 99 89 79 69 59 49 37 28 20 18 16 14
Wind_Speed_850mb
39 43 43 43 47 53 35 12 9 7 4 20 24 19 8 5 13 9 7 11 23 22 26 25 33 29 13 18 6 8 8 7 21 32 31 29 25 21 16 14 14 20 21 24
37 43 36 36 38 46 56 19 27 4 5 11 17 9 4 9 11 7 6 6 21 27 22 17 20 17 7 7 10 0 3 8 16 21 29 32 17 15 19 19 19 25 24 23
37 36 29 30 30 33 38 16 8 12 7 5 12 20 19 12 9 6 12 17 18 20 28 20 14 23 8 17 5 16 3 16 22 21 14 12 29 29 28 23 16 25 29 37
29 29 26 26 26 26 32 12 8 6 8 12 13 15 21 23 11 11 8 7 16 13 11 17 14 16 11 27 12 11 13 23 27 33 35 33 38 38 37 33 35 33 35 39
28 27 24 25 23 22 16 16 14 29 32 19 13 11 3 14 12 7 9 10 18 16 18 18 28 19 19 13 4 15 10 19 21 30 34 38 40 37 33 35 35 39 35 32
32 22 25 26 19 18 10 19 17 19 24 16 12 7 8 7 11 14 5 11 14 18 18 16 28 29 30 27 16 6 7 5 7 14 24 29 22 25 21 11 16 21 25 34
32 25 24 28 21 16 17 16 23 19 17 17 10 13 17 16 16 17 27 20 17 15 24 33 39 44 41 35 31 34 14 17 10 10 23 21 12 17 10 17 18 28 30 33
33 29 24 28 24 20 18 11 14 7 14 27 19 15 15 19 25 15 21 19 7 13 16 11 14 13 15 25 34 28 28 17 5 6 15 26 24 12 13 13 17 28 29 35
32 30 25 32 30 24 19 11 7 10 12 4 17 19 13 11 13 17 17 8 9 9 4 4 7 5 3 4 8 30 30 31 15 14 9 7 13 1 15 20 14 31 38 36
35 33 34 39 34 25 18 15 13 6 18 26 10 8 7 7 8 9 24 9 3 4 3 4 8 11 12 7 12 10 16 8 20 20 13 13 16 22 24 11 16 43 47 48
31 29 33 26 24 24 21 21 20 9 10 35 29 19 23 19 13 7 12 13 6 4 5 6 8 6 5 7 11 12 13 11 12 16 10 9 27 15 10 17 32 39 45 48
24 26 21 20 22 25 22 26 21 19 18 22 32 37 37 31 23 8 8 3 4 5 2 4 9 7 4 8 2 10 6 10 4 4 3 19 23 26 17 22 31 38 44 45
26 24 19 18 20 20 20 22 24 15 16 30 17 17 15 24 33 23 10 5 8 6 9 3 7 9 5 4 3 4 3 15 5 6 6 14 20 24 28 29 33 39 43 49
26 26 20 19 25 25 25 31 29 17 7 6 9 2 4 5 20 33 32 13 13 5 2 7 8 8 12 8 4 6 10 15 8 8 14 16 19 35 32 33 36 39 43 43
26 24 25 23 21 26 25 34 34 20 8 5 21 36 26 30 30 32 33 27 17 8 6 10 8 10 11 18 13 14 2 5 4 5 12 10 20 26 28 34 36 38 41 45
25 23 23 22 20 29 37 21 35 28 20 3 6 9 6 19 22 12 28 30 22 8 7 12 13 21 18 5 4 2 14 8 18 8 11 12 17 21 27 29 32 31 36 38
24 23 22 21 26 28 32 13 8 22 21 5 7 3 14 14 8 11 21 14 13 13 9 12 23 17 13 11 15 13 13 19 10 6 8 15 18 23 25 27 28 32 31 36
18 17 19 18 24 39 28 20 18 14 9 7 5 7 13 12 6 8 14 11 16 14 10 11 16 14 9 8 6 22 18 15 7 8 8 12 17 20 24 27 30 32 37 42
18 22 20 31 29 20 21 20 19 26 9 5 6 5 4 8 7 9 14 16 7 11 7 13 9 8 11 3 22 13 14 6 6 7 11 16 19 22 26 29 31 33 38 40
21 20 8 8 15 15 29 14 12 6 5 9 9 22 5 13 7 7 7 12 5 5 11 11 8 9 11 23 20 16 9 9 10 11 15 20 22 24 26 30 30 32 34 38
43 11 8 15 34 15 9 9 10 12 8 14 14 23 12 4 5 4 9 3 4 6 8 11 8 9 16 15 16 14 13 13 13 12 13 17 19 22 25 28 29 31 34 36
17 15 25 27 8 5 6 8 9 11 7 18 10 4 4 7 6 7 5 4 7 9 20 8 5 11 26 21 17 16 15 13 13 14 17 19 21 23 23 26 28 31 34 37
14 6 10 8 10 8 10 13 9 8 11 13 12 5 6 6 10 6 5 9 10 9 5 2 6 27 31 22 20 17 15 14 14 16 18 19 20 24 25 27 27 29 34 39
6 9 8 8 9 9 10 5 6 2 15 16 17 9 7 9 7 6 8 8 5 6 9 5 15 28 25 21 20 19 15 14 15 15 16 18 20 23 26 27 27 29 35 38
3 5 7 11 14 2 10 6 9 7 22 21 11 5 13 7 7 9 7 7 9 3 6 4 32 29 24 23 19 17 16 16 15 15 16 18 19 21 23 26 28 31 32 36
5 8 9 12 10 7 6 14 11 14 9 9 5 5 6 10 6 9 13 5 1 6 8 32 31 27 23 21 19 17 17 16 16 16 16 17 19 21 21 23 27 30 34 36
6 10 19 21 11 7 8 7 14 16 9 3 6 7 12 7 6 4 1 2 12 31 35 28 33 29 23 23 20 18 17 16 17 18 17 17 18 19 22 26 27 27 33 34
Wind_Direction_850mb
320 325 330 332 339 339 350 288 265 150 175 238 242 264 33 36 310 309 312 300 297 299 314 296 292 284 224 275 284 218 108 289 277 272 258 269 289 267 249 214 249 258 259 268
321 319 323 329 338 343 346 295 286 174 181 268 315 221 331 311 253 330 313 281 297 313 288 301 287 304 96 253 246 306 85 246 279 263 246 239 237 279 259 254 261 266 276 284
320 320 318 321 333 336 338 291 288 187 221 260 325 346 310 288 118 315 351 322 313 308 293 266 271 284 348 207 159 99 314 263 251 276 292 215 281 281 272 263 259 273 269 284
315 322 318 315 322 326 331 254 6 7 310 53 343 301 306 290 321 24 346 296 34 346 289 323 312 14 4 304 208 227 234 263 275 279 282 281 275 271 271 271 271 271 278 281
300 323 316 315 319 317 308 307 350 336 289 279 302 272 353 336 334 314 307 299 12 327 286 319 307 331 312 288 258 255 228 261 278 277 274 262 262 267 268 263 268 266 282 299
272 301 312 311 314 317 318 343 315 282 296 266 229 25 20 299 282 300 316 344 312 288 320 296 303 299 291 271 271 272 307 276 302 268 273 284 275 275 300 5 327 348 316 334
268 282 297 300 305 288 291 325 329 308 279 280 289 328 300 304 319 286 292 294 269 293 315 302 280 261 255 255 249 244 240 270 263 283 297 277 311 23 26 6 350 3 360 353
271 277 274 295 293 285 264 292 320 305 289 317 308 334 334 318 304 276 289 302 312 321 312 300 282 233 229 234 234 230 218 228 260 257 266 286 271 48 26 9 357 27 354 345
283 273 265 288 283 275 270 256 260 280 291 6 347 316 310 312 315 297 268 330 294 297 303 312 271 267 244 204 180 203 203 216 209 269 261 283 80 141 357 308 267 8 355 340
269 264 277 278 269 261 247 226 242 262 278 285 351 353 322 314 328 281 292 326 297 283 206 255 260 255 131 221 166 171 192 196 228 242 242 271 23 350 334 277 342 345 345 337
252 273 283 262 242 240 244 239 236 235 238 283 293 274 257 257 246 255 358 288 358 153 211 252 263 302 348 280 136 154 199 196 199 233 245 247 15 24 30 5 341 334 335 333
260 278 271 234 241 232 233 231 239 252 249 268 278 272 256 246 253 196 225 5 241 240 273 271 303 311 333 307 209 138 229 190 228 263 131 82 63 80 39 357 341 339 327 328
263 259 249 244 242 233 248 264 245 252 278 302 260 295 281 232 223 209 222 238 239 265 153 318 282 279 274 276 264 265 284 275 212 290 117 43 45 32 6 354 341 331 333 333
252 244 250 263 250 244 242 251 235 225 237 284 299 285 121 169 190 205 225 242 230 265 258 245 266 268 287 290 236 249 257 218 257 284 46 348 28 358 349 341 335 336 334 340
242 242 249 261 249 232 245 252 241 227 219 277 292 295 281 241 192 205 220 209 212 203 269 234 251 269 272 266 279 268 50 309 338 63 56 358 337 329 332 338 341 338 339 344
242 245 247 256 243 215 228 213 233 229 223 246 293 294 199 135 180 203 202 193 200 207 246 269 261 270 276 295 281 151 169 106 43 44 352 332 312 338 339 343 341 349 348 350
240 239 241 248 230 232 193 183 183 163 182 220 269 229 144 153 156 185 174 190 207 197 240 251 257 265 280 275 257 9 95 91 66 333 335 336 351 339 344 347 349 349 351 352
236 236 240 240 219 202 187 173 154 154 158 232 266 272 175 174 153 167 178 171 195 217 241 251 257 262 224 253 150 174 102 89 66 354 348 1 348 348 354 352 353 355 358 354
219 220 242 197 186 182 194 192 169 172 177 234 237 242 185 164 171 184 178 183 196 225 233 236 235 243 213 217 133 125 88 78 16 8 29 11 4 1 2 3 3 5 0 358
197 193 175 161 166 158 143 133 172 203 225 231 251 230 240 185 160 194 210 186 220 231 228 215 221 249 146 129 137 116 111 78 59 46 26 8 7 11 9 13 11 9 1 358
176 153 143 132 142 135 153 154 193 177 222 211 228 230 213 301 187 194 221 209 216 249 193 204 214 162 150 150 126 117 106 99 78 58 31 21 17 15 14 17 18 14 7 6
179 154 131 143 181 186 203 195 192 212 243 176 196 143 172 140 164 211 248 247 214 251 168 221 169 135 144 132 137 122 116 100 79 58 46 40 36 30 29 27 25 21 17 16
161 149 130 175 175 192 215 192 192 199 205 163 152 144 152 153 194 219 223 229 234 282 226 203 100 126 137 145 136 127 113 98 86 71 60 53 46 41 39 36 32 27 23 19
179 148 169 230 179 232 219 276 100 223 117 130 147 139 175 184 183 234 239 234 210 238 213 102 128 134 147 148 137 130 112 99 90 77 62 55 50 46 44 38 30 24 21 16
190 207 230 217 234 191 94 104 181 150 149 141 135 184 184 186 235 209 239 232 230 2 80 84 128 141 147 140 127 124 119 110 92 80 69 63 57 51 43 33 26 22 19 16
226 231 259 235 247 202 297 227 178 158 136 147 185 201 210 225 214 223 209 230 302 112 116 134 138 140 133 121 119 116 114 107 97 86 79 70 59 48 38 29 24 19 19 16
235 243 243 258 290 254 214 178 129 156 146 227 232 225 217 181 240 231 219 97 121 131 134 136 134 135 142 130 128 122 115 107 99 89 79 69 59 49 37 28 20 18 16 14